Location: Monroe
(41.9160°N, 83.3980°W)
Time: 21:42:21
(UTC-04:00)

Amateur Radio Satellites - All Passes

Search period start: 26 June 2017 21:12
Search period end: 27 June 2017 21:12
Location: Monroe, 41.9160°N, 83.3980°W

Satellite Date Start Highest point End Downlink Frequencies (MHz)
Time Altitude Azimuth
SEEDS 26 Jun 21:15:27 21:18:56 25° 265° (W) 21:22:25 437.485
PCSat 26 Jun 21:23:02 21:28:16 46° 54° (NE) 21:33:29 145.827
DELFI C3 26 Jun 21:42:16 21:45:35 27° 70° (ENE) 21:48:55 145.870
AO-85 26 Jun 21:43:17 21:47:16 56° 305° (NW) 21:51:09 145.980
AO-73 26 Jun 21:45:43 21:50:10 53° 261° (W) 21:54:39 145.935
HO-68 26 Jun 21:46:16 21:51:04 19° 270° (W) 21:55:54 435.675
BEESAT 2 26 Jun 21:59:06 22:02:52 42° 117° (ESE) 22:06:42 435.950
CUBEBUG 2 26 Jun 22:01:34 22:03:41 13° 271° (W) 22:05:49 437.445
STRAND 1 26 Jun 22:03:36 22:08:06 31° 293° (WNW) 22:12:35 437.568
AAUSAT CUBESAT 2 26 Jun 22:03:37 22:06:10 16° 268° (W) 22:08:45 437.432
Oscar 11 26 Jun 22:11:59 22:15:56 34° 263° (W) 22:19:55 .
NO-84 26 Jun 22:13:43 22:17:31 62° 135° (SE) 22:21:39 435.350 FM
FO-29 26 Jun 22:19:28 22:26:09 30° 92° (E) 22:32:42 435.910
EO-88 26 Jun 22:21:20 22:24:54 51° 75° (ENE) 22:28:29 145.990 - 145.960
ZACube-1 26 Jun 22:22:53 22:26:17 21° 267° (W) 22:29:44 437.345
YUBILEINY 26 Jun 22:32:22 22:40:56 61° 91° (E) 22:49:35 435.215
BEESAT 3 26 Jun 22:35:02 22:38:33 29° 311° (NW) 22:42:07 437.485
TIGRISAT 26 Jun 22:39:40 22:42:56 19° 92° (E) 22:46:08 435.000
O/OREOS (USA 219) 26 Jun 22:39:55 22:44:25 63° 294° (WNW) 22:48:56 437.305
RS-15 26 Jun 22:40:11 22:52:22 74° 307° (NW) 23:04:49 29.354- 29.394
LO-87 26 Jun 22:42:07 22:43:24 12° 64° (ENE) 22:44:41 145.935 - 145.965
SO-50 26 Jun 22:58:30 23:02:39 34° 49° (NE) 23:06:47 436.795
PCSat 26 Jun 23:06:58 23:11:23 26° 252° (WSW) 23:15:45 145.827
ESTCUBE 1 26 Jun 23:07:59 23:11:07 19° 65° (ENE) 23:14:14 437.505/2401.250
M-CUBED/EXP-1 PRIME 26 Jun 23:16:05 23:19:49 62° 106° (ESE) 23:23:52 437.505
DELFI C3 26 Jun 23:17:16 23:20:20 22° 266° (W) 23:23:25 145.870
UNISAT 6 26 Jun 23:21:14 23:25:49 55° 100° (E) 23:30:16 437.425
BEESAT 2 26 Jun 23:37:45 23:40:49 21° 315° (NW) 23:43:55 435.950
PRISM 26 Jun 23:42:18 23:46:25 88° 292° (WNW) 23:50:32 437.425
NO-84 26 Jun 23:51:56 23:55:25 27° 335° (NNW) 23:59:04 435.350 FM
EO-88 26 Jun 23:58:27 23:58:53 10° 270° (W) 23:59:19 145.990 - 145.960
FO-29 27 Jun 00:03:48 00:11:29 62° 290° (WNW) 00:19:06 435.910
QB50P2 27 Jun 00:06:58 00:07:16 10° 89° (E) 00:07:32 145.880/145.840
LO-87 27 Jun 00:12:59 00:16:24 46° 261° (W) 00:19:52 145.935 - 145.965
TIGRISAT 27 Jun 00:15:24 00:19:50 44° 289° (WNW) 00:24:09 435.000
EO-79 27 Jun 00:28:39 00:31:30 17° 92° (E) 00:34:19 145.935-145.965
YUBILEINY 27 Jun 00:30:45 00:38:15 31° 292° (WNW) 00:45:53 435.215
VELOX 1 27 Jun 00:38:37 00:42:41 39° 70° (ENE) 00:46:46 145.980
SO-50 27 Jun 00:39:06 00:43:00 29° 246° (WSW) 00:46:55 436.795
DUCHIFAT 1 27 Jun 00:40:45 00:43:46 19° 93° (E) 00:46:46 145.980
ESTCUBE 1 27 Jun 00:43:17 00:47:34 44° 261° (W) 00:51:53 437.505/2401.250
SPROUT 27 Jun 00:48:31 00:52:40 53° 73° (ENE) 00:56:52 437.525
NANOSAT C BR1 27 Jun 00:49:37 00:53:14 26° 95° (E) 00:56:48 145.865
M-CUBED/EXP-1 PRIME 27 Jun 00:52:34 00:53:54 12° 301° (WNW) 00:55:16 437.505
DX 1 27 Jun 00:54:32 00:57:41 20° 65° (ENE) 01:00:50 434.975-435.025
RS-15 27 Jun 00:57:02 01:07:30 31° 335° (NNW) 01:17:59 29.354- 29.394
UNISAT 6 27 Jun 00:59:08 01:02:02 17° 297° (WNW) 01:04:54 437.425
AIST 2D 27 Jun 01:06:10 01:09:40 69° 284° (WNW) 01:13:07 435.315
UKube-1 27 Jun 01:08:44 01:11:47 19° 65° (ENE) 01:14:51 .
50 SAT 27 Jun 01:21:09 01:24:24 48° 73° (ENE) 01:27:40 437.505
POLYITAN 1 27 Jun 01:28:16 01:32:34 80° 101° (E) 01:36:50 437.675
NO-84 27 Jun 01:31:51 01:34:14 14° 356° (N) 01:36:38 435.350 FM
QB50P2 27 Jun 01:39:14 01:43:31 70° 284° (WNW) 01:47:44 145.880/145.840
BUGSAT 1 27 Jun 01:44:22 01:48:03 28° 96° (E) 01:51:42 437.445
FO-29 27 Jun 01:51:19 01:54:59 14° 309° (NW) 01:58:42 435.910
EO-79 27 Jun 02:03:24 02:07:26 41° 289° (WNW) 02:11:26 145.935-145.965
DUCHIFAT 1 27 Jun 02:15:37 02:19:34 37° 289° (WNW) 02:23:28 145.980
VELOX 1 27 Jun 02:16:08 02:19:16 19° 267° (W) 02:22:25 145.980
NANOSAT C BR1 27 Jun 02:25:16 02:28:52 27° 292° (WNW) 02:32:27 145.865
SPROUT 27 Jun 02:26:45 02:28:54 13° 269° (W) 02:31:02 437.525
Gurwin Techsat 1B 27 Jun 02:28:34 02:32:31 21° 93° (E) 02:36:27 435.225
DX 1 27 Jun 02:29:34 02:33:36 38° 262° (W) 02:37:39 434.975-435.025
UKube-1 27 Jun 02:43:30 02:47:32 39° 261° (W) 02:51:35 .
ITUPSAT 1 27 Jun 02:59:59 03:04:07 29° 67° (ENE) 03:08:16 437.325
Oscar 19 27 Jun 03:01:30 03:06:37 67° 102° (ESE) 03:11:42 437.125/150
POLYITAN 1 27 Jun 03:07:04 03:07:41 10° 300° (WNW) 03:08:17 437.675
BEESAT 27 Jun 03:08:39 03:13:00 36° 69° (ENE) 03:17:23 436.000
NO-84 27 Jun 03:10:06 03:13:13 19° 17° (NNE) 03:16:20 435.350 FM
RS-15 27 Jun 03:15:49 03:25:28 25° 11° (N) 03:34:53 29.354- 29.394
BUGSAT 1 27 Jun 03:19:46 03:23:17 25° 292° (WNW) 03:26:46 437.445
AO-7 27 Jun 03:22:47 03:26:05 13° 87° (E) 03:29:21 .
ITAMSAT 1 27 Jun 03:44:30 03:46:49 13° 89° (E) 03:49:06 435.822/435.867
MOZHAYETS 4 27 Jun 04:02:26 04:07:04 78° 75° (ENE) 04:11:43
Gurwin Techsat 1B 27 Jun 04:07:36 04:12:44 50° 289° (WNW) 04:17:51 435.225
AO-85 27 Jun 04:34:08 04:36:46 16° 43° (NE) 04:39:28 145.980
ITUPSAT 1 27 Jun 04:37:37 04:41:52 31° 264° (W) 04:46:08 437.325
Oscar 19 27 Jun 04:42:16 04:45:22 16° 299° (WNW) 04:48:29 437.125/150
BEESAT 27 Jun 04:46:56 04:50:50 25° 265° (W) 04:54:45 436.000
NO-84 27 Jun 04:47:16 04:51:36 55° 36° (NE) 04:55:51 435.350 FM
CUBESAT XI-V 27 Jun 04:47:58 04:52:21 43° 71° (ENE) 04:56:43 437.345
AO-7 27 Jun 05:11:51 05:20:15 71° 105° (ESE) 05:28:35 .
BEESAT 3 27 Jun 05:13:57 05:17:02 21° 45° (NE) 05:20:04 437.485
ITAMSAT 1 27 Jun 05:21:36 05:26:51 78° 286° (WNW) 05:32:04 435.822/435.867
KKS-1 27 Jun 05:24:24 05:28:47 74° 75° (ENE) 05:33:14 437.445
RS-15 27 Jun 05:30:09 05:41:59 50° 43° (NE) 05:53:13 29.354- 29.394
MOZHAYETS 4 27 Jun 05:43:54 05:44:45 10° 272° (W) 05:45:35
STARS 27 Jun 05:49:30 05:53:47 58° 73° (ENE) 05:58:07 437.465
DOVE 4 27 Jun 05:58:54 06:01:43 15° 90° (E) 06:04:36 437.250
AO-85 27 Jun 06:13:25 06:17:30 64° 240° (WSW) 06:21:52 145.980
BEESAT 2 27 Jun 06:16:22 06:20:01 30° 49° (NE) 06:23:37 435.950
NO-84 27 Jun 06:25:26 06:28:56 24° 234° (SW) 06:32:20 435.350 FM
CUBESAT XI-V 27 Jun 06:26:37 06:29:54 19° 267° (W) 06:33:12 437.345
XW-2C 27 Jun 06:34:44 06:35:00 10° 90° (E) 06:35:15 145.795 - 145.815
CUTE-I 27 Jun 06:38:44 06:41:36 14° 90° (E) 06:44:27 437.470
BEESAT 3 27 Jun 06:50:59 06:54:47 42° 243° (WSW) 06:58:31 437.485
ITAMSAT 1 27 Jun 07:04:03 07:05:25 11° 304° (WNW) 07:06:46 435.822/435.867
KKS-1 27 Jun 07:05:17 07:05:51 10° 271° (W) 07:06:25 437.445
AO-7 27 Jun 07:05:30 07:12:20 29° 305° (NW) 07:19:09 .
O/OREOS (USA 219) 27 Jun 07:10:44 07:14:33 27° 58° (ENE) 07:18:20 437.305
NUDT-PHONESAT 27 Jun 07:15:19 07:18:23 24° 95° (E) 07:21:24 437.300
HO-68 27 Jun 07:25:22 07:28:46 14° 88° (E) 07:32:10 435.675
STARS 27 Jun 07:28:25 07:30:29 13° 269° (W) 07:32:34 437.465
DOVE 4 27 Jun 07:34:50 07:39:45 66° 286° (WNW) 07:44:52 437.250
XW-2F 27 Jun 07:35:54 07:39:36 57° 100° (E) 07:43:16 145.980 - 146.000
STRAND 1 27 Jun 07:40:22 07:45:17 48° 71° (ENE) 07:50:14 437.568
XW-2D 27 Jun 07:41:06 07:44:53 74° 101° (ESE) 07:48:37 145.860 - 145.880
RS-15 27 Jun 07:43:05 07:54:44 57° 248° (WSW) 08:05:48 29.354- 29.394
CUTE 1.7 + AOD 2 27 Jun 07:45:19 07:46:47 12° 90° (E) 07:48:16 437.475
XW-2B 27 Jun 07:50:09 07:53:56 88° 294° (WNW) 07:57:41 145.730 - 145.750
LilacSat-2 27 Jun 07:51:34 07:55:22 78° 283° (WNW) 07:59:07 437.200
BEESAT 2 27 Jun 07:54:15 07:57:40 26° 246° (WSW) 08:01:02 435.950
Tancredo 1 27 Jun 07:55:35 07:58:16 29° 137° (SE) 08:00:57 437.200
XW-2C 27 Jun 08:05:50 08:09:31 54° 286° (WNW) 08:13:10 145.795 - 145.815
CUBEBUG 2 27 Jun 08:14:09 08:16:41 14° 89° (E) 08:19:12 437.445
KAITUO 1B 27 Jun 08:15:33 08:19:11 52° 285° (WNW) 08:22:46 145.475/437.950
CUTE-I 27 Jun 08:16:47 08:22:10 73° 287° (WNW) 08:27:31 437.470
FO-29 27 Jun 08:35:31 08:38:13 13° 50° (NE) 08:41:01 435.910
ISS 27 Jun 08:35:35 08:38:38 37° 138° (SE) 08:41:43 437.550
YUBILEINY 27 Jun 08:42:29 08:50:05 31° 68° (ENE) 08:57:34 435.215
UWE-3 27 Jun 08:43:39 08:46:39 17° 91° (E) 08:49:35 435.000/436.395/437.385
NUDT-PHONESAT 27 Jun 08:49:17 08:52:09 21° 291° (WNW) 08:55:00 437.300
O/OREOS (USA 219) 27 Jun 08:50:01 08:53:56 30° 256° (WSW) 08:57:49 437.305
SEEDS 27 Jun 08:57:53 09:01:56 49° 99° (E) 09:05:57 437.485
XW-2A 27 Jun 09:10:00 09:13:24 87° 97° (E) 09:16:47 145.665 - 145.685
HO-68 27 Jun 09:10:18 09:17:31 82° 106° (ESE) 09:24:41 435.675
XW-2F 27 Jun 09:12:27 09:13:14 11° 297° (WNW) 09:13:59 145.980 - 146.000
CUTE 1.7 + AOD 2 27 Jun 09:18:51 09:23:00 59° 286° (WNW) 09:27:07 437.475
STRAND 1 27 Jun 09:20:55 09:24:42 21° 267° (W) 09:28:32 437.568
Tancredo 1 27 Jun 09:31:02 09:33:48 32° 334° (NNW) 09:36:36 437.200
AO-73 27 Jun 09:33:43 09:37:33 28° 95° (E) 09:41:18 145.935
TIGRISAT 27 Jun 09:38:42 09:41:51 18° 64° (ENE) 09:45:02 435.000
AAUSAT CUBESAT 2 27 Jun 09:43:15 09:47:22 76° 103° (ESE) 09:51:28 437.432
CUBEBUG 2 27 Jun 09:49:03 09:53:42 58° 286° (WNW) 09:58:11 437.445
Oscar 11 27 Jun 09:58:23 10:02:27 40° 98° (E) 10:06:30 .
CUTE-I 27 Jun 10:00:11 10:01:16 11° 304° (NW) 10:02:20 437.470
M-CUBED/EXP-1 PRIME 27 Jun 10:02:56 10:06:13 83° 71° (ENE) 10:09:29 437.505
ZACube-1 27 Jun 10:09:29 10:13:57 80° 102° (ESE) 10:18:17 437.345
ISS 27 Jun 10:12:11 10:15:09 31° 336° (NNW) 10:18:09 437.550
FO-29 27 Jun 10:15:39 10:21:43 67° 72° (ENE) 10:28:41 435.910
UWE-3 27 Jun 10:18:58 10:23:22 46° 288° (WNW) 10:27:37 435.000/436.395/437.385
UNISAT 6 27 Jun 10:19:48 10:24:14 49° 72° (ENE) 10:28:47 437.425
PRISM 27 Jun 10:31:28 10:35:29 67° 74° (ENE) 10:39:31 437.425
SEEDS 27 Jun 10:34:51 10:37:12 15° 296° (WNW) 10:39:33 437.485
YUBILEINY 27 Jun 10:38:46 10:47:24 61° 269° (W) 10:55:59 435.215
DELFI C3 27 Jun 10:52:46 10:56:31 41° 98° (E) 11:00:16 145.870
HO-68 27 Jun 10:59:21 11:04:25 21° 304° (NW) 11:09:27 435.675
Tancredo 1 27 Jun 11:08:21 11:10:04 14° 354° (N) 11:11:46 437.200
AO-73 27 Jun 11:10:00 11:13:41 26° 292° (WNW) 11:17:17 145.935
TIGRISAT 27 Jun 11:13:40 11:18:07 49° 261° (W) 11:22:41 435.000
EO-79 27 Jun 11:21:59 11:24:18 14° 63° (ENE) 11:26:38 145.935-145.965
EO-88 27 Jun 11:23:07 11:26:45 65° 101° (E) 11:30:21 145.990 - 145.960
DUCHIFAT 1 27 Jun 11:33:22 11:35:53 15° 64° (ENE) 11:38:23 145.980
Oscar 11 27 Jun 11:35:17 11:38:17 19° 294° (WNW) 11:41:17 .
AIST 2D 27 Jun 11:40:28 11:43:48 40° 73° (ENE) 11:47:09 435.315
LO-87 27 Jun 11:40:49 11:42:33 13° 92° (E) 11:44:17 145.935 - 145.965
NANOSAT C BR1 27 Jun 11:42:11 11:45:23 21° 66° (ENE) 11:48:37 145.865
ZACube-1 27 Jun 11:48:24 11:49:31 11° 300° (WNW) 11:50:37 437.345
ISS 27 Jun 11:50:20 11:52:24 15° 356° (N) 11:54:27 437.550
UNISAT 6 27 Jun 11:58:12 12:01:13 17° 269° (W) 12:04:17 437.425
FO-29 27 Jun 12:03:01 12:07:31 21° 273° (W) 12:12:25 435.910
PCSat 27 Jun 12:05:04 12:10:03 38° 111° (ESE) 12:15:04 145.827
POLYITAN 1 27 Jun 12:20:37 12:24:49 61° 74° (ENE) 12:29:04 437.675
DELFI C3 27 Jun 12:28:36 12:30:57 16° 294° (WNW) 12:33:19 145.870
QB50P2 27 Jun 12:31:32 12:35:47 88° 85° (E) 12:40:06 145.880/145.840
BUGSAT 1 27 Jun 12:34:35 12:37:43 21° 66° (ENE) 12:40:53 437.445
ESTCUBE 1 27 Jun 12:35:11 12:39:20 35° 98° (E) 12:43:26 437.505/2401.250
YUBILEINY 27 Jun 12:41:58 12:42:12 10° 289° (WNW) 12:42:25 435.215
Oscar 19 27 Jun 12:42:39 12:45:08 14° 59° (ENE) 12:47:36 437.125/150
Tancredo 1 27 Jun 12:44:26 12:46:33 17° 14° (NNE) 12:48:39 437.200
EO-79 27 Jun 12:55:27 12:59:36 54° 260° (W) 13:03:49 145.935-145.965
DUCHIFAT 1 27 Jun 13:07:01 13:11:07 49° 260° (W) 13:15:16 145.980
LO-87 27 Jun 13:12:45 13:16:10 39° 287° (WNW) 13:19:34 145.935 - 145.965
AIST 2D 27 Jun 13:15:46 13:17:12 12° 269° (W) 13:18:38 435.315
NANOSAT C BR1 27 Jun 13:17:00 13:20:52 34° 263° (W) 13:24:47 145.865
ISS 27 Jun 13:27:14 13:29:47 20° 16° (NNE) 13:32:21 437.550
PCSat 27 Jun 13:48:38 13:53:29 33° 310° (NW) 13:58:24 145.827
Gurwin Techsat 1B 27 Jun 13:49:42 13:54:28 35° 67° (ENE) 13:59:14 435.225
POLYITAN 1 27 Jun 13:59:23 14:00:59 12° 270° (W) 14:02:36 437.675
VELOX 1 27 Jun 14:03:58 14:08:26 76° 103° (ESE) 14:12:51 145.980
BUGSAT 1 27 Jun 14:09:06 14:12:51 33° 263° (W) 14:16:41 437.445
SPROUT 27 Jun 14:09:20 14:13:40 82° 282° (WNW) 14:17:57 437.525
ESTCUBE 1 27 Jun 14:12:26 14:15:54 23° 294° (WNW) 14:19:22 437.505/2401.250
50 SAT 27 Jun 14:15:37 14:18:56 47° 100° (E) 14:22:14 437.505
DX 1 27 Jun 14:17:04 14:21:02 33° 98° (E) 14:25:00 434.975-435.025
Oscar 19 27 Jun 14:18:36 14:23:45 82° 256° (WSW) 14:28:55 437.125/150
Tancredo 1 27 Jun 14:19:32 14:22:34 65° 32° (NNE) 14:25:35 437.200
AO-7 27 Jun 14:21:19 14:27:27 24° 52° (NE) 14:33:35 .
UKube-1 27 Jun 14:29:57 14:33:48 30° 97° (E) 14:37:37 .
SO-50 27 Jun 14:52:40 14:57:13 81° 122° (ESE) 15:01:46 436.795
ITAMSAT 1 27 Jun 15:02:03 15:06:00 22° 63° (ENE) 15:09:58 435.822/435.867
ISS 27 Jun 15:03:22 15:06:40 82° 31° (NNE) 15:09:58 437.550
Gurwin Techsat 1B 27 Jun 15:29:45 15:34:24 30° 264° (W) 15:39:04 435.225
VELOX 1 27 Jun 15:42:44 15:44:14 12° 299° (WNW) 15:45:45 145.980
50 SAT 27 Jun 15:50:40 15:51:17 10° 296° (WNW) 15:51:55 437.505
DX 1 27 Jun 15:53:36 15:57:02 23° 294° (WNW) 16:00:29 434.975-435.025
Tancredo 1 27 Jun 15:56:15 15:57:47 13° 229° (SW) 15:59:19 437.200
MOZHAYETS 4 27 Jun 15:58:09 16:01:12 17° 92° (E) 16:04:14
UKube-1 27 Jun 16:06:11 16:09:40 24° 293° (WNW) 16:13:09 .
AO-7 27 Jun 16:10:52 16:19:13 87° 253° (WSW) 16:27:38 .
SO-50 27 Jun 16:35:25 16:38:15 16° 321° (NW) 16:41:05 436.795
ITUPSAT 1 27 Jun 16:36:55 16:41:41 65° 101° (ESE) 16:46:26 437.325
ITAMSAT 1 27 Jun 16:40:05 16:45:07 49° 260° (W) 16:50:11 435.822/435.867
ISS 27 Jun 16:41:28 16:42:42 12° 230° (SW) 16:43:57 437.550
BEESAT 27 Jun 16:45:24 16:50:12 81° 100° (E) 16:54:58 436.000
DOVE 4 27 Jun 17:06:06 17:07:58 13° 62° (ENE) 17:09:51 437.250
KKS-1 27 Jun 17:16:29 17:18:46 14° 91° (E) 17:21:02 437.445
MOZHAYETS 4 27 Jun 17:34:12 17:38:36 46° 288° (WNW) 17:42:57
NUDT-PHONESAT 27 Jun 17:56:03 17:57:51 13° 65° (ENE) 17:59:39 437.300
HO-68 27 Jun 17:56:28 17:59:26 13° 49° (NE) 18:02:23 435.675
CUTE-I 27 Jun 18:00:18 18:04:36 26° 64° (ENE) 18:08:56 437.470
AO-7 27 Jun 18:07:56 18:13:03 17° 270° (W) 18:18:12 .
ITUPSAT 1 27 Jun 18:16:16 18:18:58 15° 299° (WNW) 18:21:41 437.325
XW-2F 27 Jun 18:17:02 18:20:20 28° 71° (ENE) 18:23:40 145.980 - 146.000
CUBESAT XI-V 27 Jun 18:20:55 18:25:32 80° 283° (WNW) 18:30:07 437.345
XW-2D 27 Jun 18:22:25 18:25:56 36° 72° (ENE) 18:29:28 145.860 - 145.880
BEESAT 27 Jun 18:25:22 18:27:18 12° 301° (WNW) 18:29:14 436.000
XW-2B 27 Jun 18:31:20 18:34:59 44° 73° (ENE) 18:38:39 145.730 - 145.750
LilacSat-2 27 Jun 18:33:17 18:37:01 50° 74° (ENE) 18:40:46 437.200
DOVE 4 27 Jun 18:40:59 18:45:05 60° 260° (W) 18:49:23 437.250
XW-2C 27 Jun 18:46:45 18:50:34 71° 76° (ENE) 18:54:24 145.795 - 145.815
KKS-1 27 Jun 18:51:15 18:55:40 58° 287° (WNW) 19:00:03 437.445
KAITUO 1B 27 Jun 18:55:12 18:58:58 69° 75° (ENE) 19:02:43 145.475/437.950
CUBEBUG 2 27 Jun 19:12:52 19:15:12 14° 61° (ENE) 19:17:33 437.445
STARS 27 Jun 19:14:24 19:18:51 76° 286° (WNW) 19:23:16 437.465
NUDT-PHONESAT 27 Jun 19:27:44 19:31:21 45° 261° (W) 19:34:59 437.300
HO-68 27 Jun 19:38:41 19:45:45 63° 69° (ENE) 19:52:51 435.675
CUTE-I 27 Jun 19:39:21 19:44:23 43° 261° (W) 19:49:29 437.470
UWE-3 27 Jun 19:41:04 19:43:54 16° 63° (ENE) 19:46:44 435.000/436.395/437.385
XW-2A 27 Jun 19:41:31 19:44:31 28° 71° (ENE) 19:47:30 145.665 - 145.685
SEEDS 27 Jun 19:49:39 19:53:28 35° 71° (ENE) 19:57:16 437.485
XW-2F 27 Jun 19:51:40 19:54:29 20° 266° (W) 19:57:19 145.980 - 146.000
STRAND 1 27 Jun 19:51:44 19:54:50 16° 91° (E) 19:57:55 437.568
RS-15 27 Jun 19:56:12 20:05:19 26° 100° (E) 20:14:33 29.354- 29.394
XW-2D 27 Jun 19:57:51 20:00:15 16° 268° (W) 20:02:38 145.860 - 145.880
XW-2B 27 Jun 20:07:35 20:09:23 13° 269° (W) 20:11:12 145.730 - 145.750
LilacSat-2 27 Jun 20:10:14 20:11:35 11° 270° (W) 20:12:55 437.200
CUTE 1.7 + AOD 2 27 Jun 20:11:10 20:15:25 83° 255° (WSW) 20:19:41 437.475
AO-85 27 Jun 20:28:31 20:32:13 33° 116° (ESE) 20:35:48 145.980
AO-73 27 Jun 20:29:13 20:32:55 25° 67° (ENE) 20:36:39 145.935
AAUSAT CUBESAT 2 27 Jun 20:33:16 20:37:14 49° 73° (ENE) 20:41:13 437.432
BEESAT 3 27 Jun 20:40:54 20:44:14 26° 114° (ESE) 20:47:39 437.485
CUBEBUG 2 27 Jun 20:46:35 20:51:10 70° 258° (WSW) 20:55:54 437.445
PCSat 27 Jun 20:52:18 20:57:17 35° 51° (NE) 21:02:13 145.827
Oscar 11 27 Jun 20:53:19 20:57:11 32° 70° (ENE) 21:01:04 .
